#timestamp,LO_Frequency,Hit,StdDev 
1670932815.5,286047002.4,N
1670932835.3,286047002.0,N
1670932855.1,286047002.4,N
1670932875.9,286047002.7,N
1670932895.7,286047002.3,N
1670932915.5,286047002.5,N
1670932935.4,286047000.4,N
1670932955.2,286047000.9,N
1670932975.1,286047000.0,N
1670932976.0,286047000.0,N
1670932995.8,286047000.0,N
1670933015.6,286047004.4,N
1670933035.5,286047001.3,N
1670933055.3,286047003.7,N
1670933075.1,286047001.5,N
1670933095.9,286047004.4,N
1670933115.7,286047001.5,N
1670933135.6,286047003.6,N
1670933155.4,286047001.8,N
1670933175.2,286047004.3,N
1670933195.1,286047001.4,N
1670933196.0,286047001.4,N
1670933215.8,286047001.9,N
1670933235.6,286047002.5,N
1670933255.5,286047002.7,N
1670933275.3,286046999.9,N
1670933295.2,286047002.1,N
1670933315.9,286047002.5,N
1670933335.7,286047002.2,N
1670933355.6,286047004.2,Y
1670933375.4,286047000.5,P
1670933395.2,286046998.2,N
1670933415.1,286047000.1,N
1670933416.0,286047000.1,N
1670933435.8,286047000.5,N
1670933455.7,286046999.8,N
1670933475.5,286047000.8,N
1670933495.3,286047000.9,N
1670933515.2,286046998.7,N
1670933535.0,286046998.2,N
1670933535.9,286046998.2,N
1670933555.7,286046999.0,N
1670933575.6,286046999.6,N
1670933595.4,286046999.2,N
1670933615.3,286047001.1,N
1670933635.1,286046998.6,N
1670933655.9,286046998.9,N
1670933675.7,286046998.6,N
1670933695.5,286046999.0,N
1670933715.4,286046998.8,N
1670933735.2,286046999.4,N
1670933755.0,286046998.5,N
1670933755.9,286046998.5,N
1670933775.8,286046999.3,N
1670933795.6,286046999.1,N
1670933815.5,286046999.0,N
1670933835.3,286046999.3,N
1670933855.1,286046998.1,N
1670933875.9,286047001.1,N
1670933895.7,286046998.6,N
1670933915.5,286046998.8,N
1670933935.4,286046999.5,N
1670933955.2,286046996.6,Y
1670933975.1,286046998.4,P
1670933976.0,286046998.4,P
1670933995.8,286046998.8,N
1670934015.6,286046998.9,Y
1670934035.5,286047000.9,P
1670934055.3,286046998.1,N
1670934075.1,286046998.5,N
1670934095.9,286047000.7,N
1670934115.7,286047000.9,N
1670934135.6,286046999.8,N
1670934155.4,286047000.4,N
1670934175.2,286047000.0,N
1670934195.1,286047000.6,N
1670934196.0,286047000.6,N
1670934215.8,286047000.3,N
1670934235.7,286047000.3,N
1670934255.5,286047000.1,N
1670934275.3,286047000.0,N
1670934295.2,286047000.0,N
1670934315.0,286047000.5,N
1670934315.9,286047000.5,N
1670934335.8,286047000.6,N
1670934355.6,286047001.1,N
1670934375.4,286046999.8,N
1670934395.3,286046999.9,N
1670934415.5,286047000.7,N
1670934435.4,286047000.3,N
1670934455.2,286047000.3,N
1670934475.1,286047000.2,N
1670934476.0,286047000.2,N
1670934495.8,286047002.6,Y
1670934515.7,286047001.9,P
1670934535.5,286047001.8,N
1670934555.3,286047002.7,P
1670934575.2,286047002.4,N
1670934595.0,286047001.3,N
1670934595.9,286047001.3,N
1670934615.8,286047002.8,Y
1670934635.6,286046998.6,P
1670934655.4,286046998.9,N
1670934675.3,286047001.1,N
1670934695.1,286046998.7,N
1670934715.8,286046998.7,N
1670934735.7,286047001.2,N
1670934755.5,286046998.7,N
1670934775.4,286046998.5,N
1670934795.2,286047001.2,N
1670934815.0,286047000.9,N
1670934815.9,286047000.9,N
1670934835.8,286047001.2,N
1670934855.6,286047000.5,N
1670934875.5,286046998.2,N
1670934895.3,286047000.0,N
1670934915.1,286046998.4,N
1670934935.9,286047000.9,N
1670934955.7,286047001.2,N
1670934975.5,286047000.9,N
1670934995.4,286047000.7,N
1670935015.2,286046998.6,N
1670935035.1,286046999.2,N
1670935036.0,286046999.2,N
1670935055.8,286046999.0,N
1670935075.6,286046998.1,N
1670935095.5,286046998.3,N
1670935115.3,286046998.7,N
1670935135.2,286046998.4,N
1670935155.9,286046998.1,N
1670935175.7,286046998.9,N
1670935195.6,286046999.1,N
1670935215.4,286047000.9,N
1670935235.3,286047000.8,N
1670935255.1,286047001.1,N
1670935256.0,286047001.1,N
1670935275.8,286047000.3,N
1670935295.7,286047000.5,N
1670935315.5,286047000.1,N
1670935335.4,286046999.9,N
1670935355.2,286047002.4,N
1670935375.0,286047002.2,N
1670935375.9,286047002.2,N
1670935395.8,286047002.1,N
1670935415.6,286047000.4,N
1670935435.4,286046998.5,N
1670935455.3,286046999.1,N
1670935475.1,286046998.2,N
1670935495.9,286046998.6,N
1670935515.7,286047001.2,N
1670935535.5,286046998.2,N
1670935555.4,286047000.5,N
1670935575.2,286047000.4,N
1670935595.0,286047002.0,N
1670935595.9,286047002.0,N
1670935615.8,286047001.9,N
1670935635.6,286047002.6,N
1670935655.5,286047002.2,N
1670935675.3,286047001.8,N
1670935695.1,286047002.3,N
1670935715.9,286047000.6,N
1670935735.7,286047000.3,N
1670935755.5,286047001.1,N
1670935775.4,286047000.6,N
1670935795.2,286047000.1,N
1670935815.1,286047000.4,N
1670935816.0,286047000.4,N
1670935835.8,286047000.5,N
1670935855.6,286047001.1,N
1670935875.5,286047000.8,N
1670935895.3,286046998.5,N
1670935915.2,286046998.6,N
1670935935.9,286046999.5,N
1670935955.7,286046999.4,N
1670935975.6,286046999.3,N
1670935995.4,286046999.0,N
1670936015.2,286046998.5,N
1670936035.1,286046998.8,N
1670936036.0,286046998.8,N
1670936055.8,286046999.4,N
1670936075.7,286046999.3,N
1670936095.5,286046998.5,N
1670936115.3,286046999.4,N
1670936135.2,286046998.2,N
1670936155.0,286046998.9,N
1670936155.9,286046998.9,N
1670936175.7,286046996.6,N
1670936195.6,286046998.8,N
1670936215.4,286046999.3,N
1670936235.3,286046998.9,N
1670936255.1,286046998.8,N
1670936256.0,286046998.8,N
1670936275.8,286046999.4,N
1670936295.7,286046998.2,N
1670936315.5,286046998.5,N
1670936335.3,286047001.2,N
1670936355.2,286047000.9,N
1670936375.0,286047001.2,N
1670936375.9,286047001.2,N
1670936395.8,286047000.3,N
